Marathon, FL

3:35 AM EDT on March 29, 2017 (GMT -0400)
Florida Keys Marathon

Weather History for KMTH - April, 2014

Change the Weather History Date:

Saturday, April 12, 2014

  Actual Average Record
Temperature  
Mean Temperature 78 °F 77 °F  
Max Temperature 83 °F 83 °F 89 °F (2013)
Min Temperature 73 °F 71 °F 66 °F (1998)
Degree Days  
Heating Degree Days 0 0  
Month to date heating degree days 0 0  
Since 1 July heating degree days 35 81  
Cooling Degree Days 13 12  
Month to date cooling degree days 158 138  
Year to date cooling degree days 984 803  
Growing Degree Days 28 (Base 50)    
Moisture  
Dew Point 67 °F    
Average Humidity 71    
Maximum Humidity 87    
Minimum Humidity 55    
Precipitation  
Precipitation 0.00 in 0.06 in 1.05 in (2004)
Month to date precipitation 0.13 0.85  
Year to date precipitation 5.39 7.06  
Snow  
Snow 0.00 in - - ()
Month to date snowfall 0.0  
Since 1 July snowfall 0.0  
Snow Depth 0.00 in    
Sea Level Pressure  
Sea Level Pressure 30.09 in    
Wind  
Wind Speed 11 mph (ENE)    
Max Wind Speed 17 mph    
Max Gust Speed 25 mph    
Visibility 10 miles    
Events      
T = Trace of Precipitation, MM = Missing Value Source: NWS Daily Summary

Daily Weather History Graph

Daily Weather History Graph

Search for Another Location

Airport or City:

Trip Planner

Search our weather history database for the weather conditions in past years. The results will help you decide how hot, cold, wet, or windy it might be!

Date:

Astronomy

Apr. 12, 2014 Rise Set
Actual Time 7:05 AM EDT 7:45 PM EDT
Civil Twilight 6:41 AM EDT 8:08 PM EDT
Nautical Twilight 6:14 AM EDT 8:35 PM EDT
Astronomical Twilight 5:46 AM EDT 9:03 PM EDT
Moon 5:35 PM EDT (4/12) 5:14 AM EDT (4/12)
Length of Visible Light 13h 26m
Length of Day
12h 40m
Waxing Gibbous, 93% of the Moon is Illuminated
Apr 12
Waxing Gibbous
Apr 15
Full
Apr 22
Last Quarter
Apr 29
New
May 6
First Quarter

Hourly Weather History & Observations

Time (EDT) Temp. Heat Index Dew Point Humidity Pressure Visibility Wind Dir Wind Speed Gust Speed Precip Events Conditions
12:39 AM 75.0 °F - 68.0 °F 79% 30.11 in 10.0 mi NE 8.1 mph - N/A   Mostly Cloudy
12:53 AM 75.0 °F - 68.0 °F 79% 30.11 in 10.0 mi NE 8.1 mph - N/A   Mostly Cloudy
1:22 AM 75.0 °F - 68.0 °F 79% 30.11 in 10.0 mi NE 5.8 mph - N/A   Mostly Cloudy
1:53 AM 75.0 °F - 69.1 °F 82% 30.10 in 10.0 mi NE 5.8 mph - N/A   Scattered Clouds
2:53 AM 73.9 °F - 69.1 °F 85% 30.08 in 10.0 mi North 5.8 mph - N/A   Partly Cloudy
3:53 AM 73.0 °F - 70.0 °F 90% 30.06 in 10.0 mi NNE 4.6 mph - N/A   Clear
4:53 AM 73.0 °F - 70.0 °F 90% 30.07 in 10.0 mi NNE 3.5 mph - N/A   Scattered Clouds
5:53 AM 75.0 °F - 68.0 °F 79% 30.08 in 10.0 mi ENE 5.8 mph - N/A   Partly Cloudy
6:53 AM 75.0 °F - 68.0 °F 79% 30.09 in 10.0 mi ENE 6.9 mph - N/A   Mostly Cloudy
7:53 AM 75.0 °F - 66.9 °F 76% 30.11 in 10.0 mi ENE 10.4 mph - N/A   Mostly Cloudy
8:53 AM 77.0 °F - 66.9 °F 71% 30.12 in 10.0 mi ENE 10.4 mph - N/A   Scattered Clouds
9:53 AM 79.0 °F - 66.0 °F 64% 30.14 in 10.0 mi ENE 15.0 mph - N/A   Scattered Clouds
10:53 AM 80.1 °F 82.1 °F 66.0 °F 62% 30.15 in 10.0 mi ENE 16.1 mph 19.6 mph N/A   Mostly Cloudy
11:53 AM 82.0 °F 84.1 °F 66.0 °F 58% 30.15 in 10.0 mi ENE 11.5 mph 21.9 mph N/A   Scattered Clouds
12:53 PM 82.9 °F 84.6 °F 64.9 °F 54% 30.13 in 10.0 mi East 11.5 mph 20.7 mph N/A   Clear
1:53 PM 82.0 °F 83.8 °F 64.9 °F 56% 30.11 in 10.0 mi East 13.8 mph 25.3 mph N/A   Clear
2:53 PM 82.9 °F 85.4 °F 66.9 °F 58% 30.09 in 10.0 mi East 13.8 mph 20.7 mph N/A   Clear
3:53 PM 82.0 °F 83.4 °F 64.0 °F 54% 30.07 in 10.0 mi East 16.1 mph 23.0 mph N/A   Clear
4:53 PM 81.0 °F 82.7 °F 64.9 °F 58% 30.05 in 10.0 mi East 16.1 mph 23.0 mph N/A   Clear
5:53 PM 79.0 °F - 64.0 °F 60% 30.05 in 10.0 mi East 10.4 mph 23.0 mph N/A   Clear
6:53 PM 78.1 °F - 64.0 °F 62% 30.05 in 10.0 mi East 10.4 mph - N/A   Clear
7:53 PM 77.0 °F - 62.1 °F 60% 30.06 in 10.0 mi ENE 12.7 mph 20.7 mph N/A   Clear
8:53 PM 75.9 °F - 64.9 °F 69% 30.07 in 10.0 mi ENE 11.5 mph 19.6 mph N/A   Clear
9:53 PM 75.9 °F - 66.0 °F 71% 30.08 in 10.0 mi ENE 11.5 mph - N/A   Scattered Clouds
10:53 PM 75.9 °F - 68.0 °F 76% 30.08 in 10.0 mi ENE 12.7 mph - N/A   Partly Cloudy
11:53 PM 75.9 °F - 66.9 °F 74% 30.08 in 10.0 mi ENE 9.2 mph - N/A   Clear